Location: Glendale
(37.4556°N, 88.6714°W)
Time: 14:20:37
(UTC+00:00)

METEOR-M - Pass Details

Date: 08 December 2019
Orbit: 817 x 819 km, 98.4° (Epoch: 23 January)

Event Time Altitude Azimuth Distance (km) Brightness Sun altitude
Rises 11:29:36 0° 9° (N) 3,354 7.3 -16.8°
Reaches altitude 10° 11:31:57 10° 8° (N) 2,418 6.5 -16.3°
Maximum altitude 11:37:16 69° 286° (WNW) 876 4.0 -15.3°
Drops below altitude 10° 11:42:33 10° 204° (SSW) 2,404 6.5 -14.3°
Sets 11:44:54 0° 201° (SSW) 3,332 7.3 -13.9°
